DW8618 Nerja ES current weather conditions

sailwx.info

Wind from 360

Air temperature 18.9° C
Dewpoint 15.4° C

Last reported at 2014-Oct-31 19:46 UTC.
Time now 2014-Nov-01 08:21 UTC

Location: N 36°46' W 003°52'.
View on Google Maps.

See reports from other nearby stations

  
Tides and Currents Weather Stations Pressure Air Temp Water Temp Dewpoint Dewpoint Depression Visibility Wind Speed Wind Dir Waves Ship Positions
date/time (UTC)wind fromknots sea level pressurealtimeterstation pressurevisibilityair tempwater tempwave heightnotes
2014-Oct-31 19:46 360 18.9
2014-Oct-31 19:31 360 18.9
2014-Oct-31 19:15 360 18.9
2014-Oct-31 19:01 360 18.9
2014-Oct-31 18:45 360 18.9
2014-Oct-31 18:30 355 19.4
2014-Oct-31 18:16 304 20.0
2014-Oct-31 18:01 301 20.0
2014-Oct-31 17:45 231 20.6
2014-Oct-31 17:30 185 20.6
2014-Oct-31 17:15 185 20.6
2014-Oct-31 17:01 184 20.6
2014-Oct-31 16:45 184 20.6
2014-Oct-31 16:31 184 20.6
2014-Oct-31 16:15 189 20.6
2014-Oct-31 16:01 175 20.6
2014-Oct-31 15:45 175 1 gusting 5 20.6
2014-Oct-31 15:30 173 2 gusting 6 21.1
2014-Oct-31 15:16 173 4 gusting 8 21.1
2014-Oct-31 15:01 177 0 gusting 8 21.7
2014-Oct-31 14:45 171 1 gusting 10 21.7
2014-Oct-31 14:30 173 2 gusting 8 21.7
2014-Oct-31 14:15 145 2 gusting 10 21.7
2014-Oct-31 14:01 173 1 gusting 7 21.7
2014-Oct-31 13:46 163 2 gusting 8 22.2
2014-Oct-31 13:30 144 3 gusting 10 21.7
2014-Oct-31 13:15 121 5 gusting 7 22.2
2014-Oct-31 13:01 138 4 gusting 10 21.7
2014-Oct-31 12:45 162 3 gusting 8 22.2
2014-Oct-31 12:31 161 3 gusting 8 21.7
2014-Oct-31 12:15 142 3 gusting 10 21.7
2014-Oct-31 12:01 183 5 gusting 9 21.7
2014-Oct-31 11:45 130 6 gusting 10 21.7
2014-Oct-31 11:30 153 5 gusting 10 22.2
2014-Oct-31 11:15 180 6 gusting 9 22.2
2014-Oct-31 11:01 105 4 gusting 9 22.8
2014-Oct-31 10:46 145 5 gusting 8 21.7
2014-Oct-31 10:30 136 3 gusting 12 21.7
2014-Oct-31 10:15 148 5 gusting 10 21.7
2014-Oct-31 10:01 107 2 gusting 8 21.7
2014-Oct-31 09:46 150 3 gusting 7 21.7
2014-Oct-31 09:30 168 0 gusting 6 21.7
2014-Oct-31 09:16 166 21.7
2014-Oct-31 09:01 276 21.7
2014-Oct-31 08:46 340 21.7
2014-Oct-31 08:30 340 20.6
2014-Oct-31 08:15 340 0 gusting 3 19.4
2014-Oct-31 08:01 005 18.9
2014-Oct-31 07:46 336 0 gusting 4 17.8
2014-Oct-31 07:30 341 17.2
2014-Oct-31 07:15 339 1 gusting 4 16.7
2014-Oct-31 07:01 355 0 gusting 4 16.7
2014-Oct-31 06:45 010 0 gusting 6 16.7
2014-Oct-31 06:31 005 2 gusting 5 16.7
2014-Oct-31 06:15 344 0 gusting 3 16.7
2014-Oct-31 06:01 346 3 gusting 5 16.7
2014-Oct-31 05:45 338 3 gusting 5 16.7
2014-Oct-31 05:31 327 1 gusting 5 16.7
2014-Oct-31 05:16 355 3 gusting 4 16.7
2014-Oct-31 05:01 350 16.7
2014-Oct-31 04:45 005 2 gusting 4 16.7
2014-Oct-31 04:30 012 0 gusting 4 16.7
2014-Oct-31 04:15 348 3 gusting 5 17.2
2014-Oct-31 04:01 023 2 gusting 4 17.2
2014-Oct-31 03:45 351 0 gusting 6 17.2
2014-Oct-31 03:30 341 1 gusting 4 17.2
2014-Oct-31 03:16 035 0 gusting 5 17.2
2014-Oct-31 03:01 024 1 gusting 5 17.2
2014-Oct-31 02:45 351 0 gusting 4 17.2
2014-Oct-31 02:30 005 1 gusting 3 17.2
2014-Oct-31 02:15 336 4 gusting 6 17.2
2014-Oct-31 02:01 336 2 gusting 6 17.2
2014-Oct-31 01:45 355 2 gusting 5 17.2
2014-Oct-31 01:30 351 0 gusting 4 17.2
2014-Oct-31 01:15 333 2 gusting 6 17.2
2014-Oct-31 01:01 360 17.2
2014-Oct-31 00:45 005 0 gusting 5 17.2
2014-Oct-31 00:30 351 0 gusting 3 17.2
2014-Oct-31 00:16 328 0 gusting 5 17.2
2014-Oct-30 23:46 344 2 gusting 5 17.2
2014-Oct-30 23:31 346 1 gusting 4 17.2
2014-Oct-30 23:15 355 0 gusting 3 17.2
2014-Oct-30 23:01 355 0 gusting 5 17.8
2014-Oct-30 22:46 340 2 gusting 6 17.8
2014-Oct-30 22:30 330 4 gusting 6 17.8
2014-Oct-30 22:15 342 3 gusting 6 17.8
2014-Oct-30 22:01 355 0 gusting 3 17.8
2014-Oct-30 21:45 355 17.8
2014-Oct-30 21:31 355 2 gusting 4 17.8
2014-Oct-30 21:16 355 0 gusting 4 17.8
2014-Oct-30 21:01 355 1 gusting 5 18.3
2014-Oct-30 20:46 355 0 gusting 5 18.3
2014-Oct-30 20:31 345 3 gusting 5 18.3
2014-Oct-30 20:15 344 18.3
2014-Oct-30 20:01 026 0 gusting 3 18.3
2014-Oct-30 19:45 028 0 gusting 3 18.3
2014-Oct-30 19:31 029 2 gusting 4 18.9
2014-Oct-30 19:15 056 1 gusting 6 18.9
2014-Oct-30 19:01 120 3 gusting 4 18.9
2014-Oct-30 18:46 153 1 gusting 4 19.4
2014-Oct-30 18:30 162 19.4
2014-Oct-30 18:15 162 20.0
2014-Oct-30 18:01 162 20.0
2014-Oct-30 17:45 161 20.6
2014-Oct-30 17:30 161 21.1
2014-Oct-30 17:15 161 0 gusting 2 21.7
2014-Oct-30 17:01 161 21.7
2014-Oct-30 16:45 161 21.7
2014-Oct-30 16:30 161 21.7
2014-Oct-30 16:15 161 1 gusting 5 22.2
2014-Oct-30 16:01 178 1 gusting 6 22.2
2014-Oct-30 15:45 176 2 gusting 5 22.2
2014-Oct-30 15:30 176 5 gusting 6 22.2
2014-Oct-30 15:16 175 2 gusting 6 22.2
2014-Oct-30 15:01 176 4 gusting 5 22.2
2014-Oct-30 14:45 176 1 gusting 7 22.8
2014-Oct-30 14:30 185 4 gusting 6 22.8
2014-Oct-30 14:15 172 0 gusting 5 23.3
2014-Oct-30 14:01 175 2 gusting 6 22.8
2014-Oct-30 13:45 173 1 gusting 6 22.8
2014-Oct-30 13:30 174 2 gusting 5 22.8
2014-Oct-30 13:16 174 3 gusting 6 22.8
2014-Oct-30 13:01 175 1 gusting 5 22.8
2014-Oct-30 12:46 179 3 gusting 6 22.8
2014-Oct-30 12:30 181 1 gusting 6 22.8
2014-Oct-30 12:15 180 2 gusting 7 22.8
2014-Oct-30 12:01 180 2 gusting 5 22.8
2014-Oct-30 11:45 186 2 gusting 6 22.8
2014-Oct-30 11:30 193 0 gusting 5 22.8
2014-Oct-30 11:15 222 0 gusting 4 22.8
2014-Oct-30 11:01 256 0 gusting 5 22.8
2014-Oct-30 10:45 192 2 gusting 5 22.8
2014-Oct-30 10:31 194 22.2
2014-Oct-30 10:15 167 1 gusting 4 22.2
2014-Oct-30 10:01 167 22.8
2014-Oct-30 09:45 166 21.7
2014-Oct-30 09:30 150 0 gusting 4 22.2
2014-Oct-30 09:15 355 22.8
2014-Oct-30 09:01 355 22.2
2014-Oct-30 08:45 355 21.7
2014-Oct-30 08:30 355 21.1
2014-Oct-30 08:15 355 20.6
2014-Oct-30 08:01 355 19.4